Time,TemperatureF,DewpointF,PressureIn,WindDirection,WindDirectionDegrees,WindSpeedMPH,WindSpeedGustMPH,Humidity,HourlyPrecipIn,Conditions,Clouds,dailyrainin,SoftwareType,DateUTC
2013-02-13 00:05:00,14.3,0.7,30.13,North,360,0.0,0.0,54,0.00,,,0.00,Wunderground v.1.15,2013-02-13 07:05:00,
2013-02-13 00:15:00,14.4,0.4,30.13,North,5,0.0,0.0,53,0.00,,,0.00,Wunderground v.1.15,2013-02-13 07:15:00,
2013-02-13 00:25:00,14.5,0.9,30.13,North,5,0.0,0.0,54,0.00,,,0.00,Wunderground v.1.15,2013-02-13 07:25:00,
2013-02-13 00:35:00,14.6,0.9,30.13,North,360,0.0,0.0,54,0.00,,,0.00,Wunderground v.1.15,2013-02-13 07:35:00,
2013-02-13 00:40:00,14.7,1.0,30.13,North,5,0.0,0.0,54,0.00,,,0.00,Wunderground v.1.15,2013-02-13 07:40:00,
2013-02-13 00:50:00,14.8,1.5,30.14,North,360,0.0,0.0,55,0.00,,,0.00,Wunderground v.1.15,2013-02-13 07:50:00,
2013-02-13 01:00:00,15.0,1.7,30.13,North,5,0.0,0.0,55,0.00,,,0.00,Wunderground v.1.15,2013-02-13 08:00:00,
2013-02-13 01:10:00,15.1,1.8,30.12,North,5,0.0,0.0,55,0.00,,,0.00,Wunderground v.1.15,2013-02-13 08:10:00,
2013-02-13 01:20:00,15.2,1.9,30.11,North,360,0.0,0.0,55,0.00,,,0.00,Wunderground v.1.15,2013-02-13 08:20:00,
2013-02-13 01:30:00,15.3,2.4,30.12,North,5,0.0,0.0,56,0.00,,,0.00,Wunderground v.1.15,2013-02-13 08:30:00,
2013-02-13 01:40:00,15.4,2.5,30.12,North,5,0.0,0.0,56,0.00,,,0.00,Wunderground v.1.15,2013-02-13 08:40:00,
2013-02-13 01:50:00,15.5,2.6,30.11,North,360,0.0,0.0,56,0.00,,,0.00,Wunderground v.1.15,2013-02-13 08:50:00,
2013-02-13 02:00:00,15.4,2.9,30.11,North,360,0.0,0.0,57,0.00,,,0.00,Wunderground v.1.15,2013-02-13 09:00:00,
2013-02-13 02:10:00,15.3,2.8,30.10,North,5,0.0,0.0,57,0.00,,,0.00,Wunderground v.1.15,2013-02-13 09:10:00,
2013-02-13 02:15:00,15.1,3.0,30.10,North,360,0.0,0.0,58,0.00,,,0.00,Wunderground v.1.15,2013-02-13 09:15:00,
2013-02-13 02:25:00,14.7,2.6,30.10,North,5,0.0,0.0,58,0.00,,,0.00,Wunderground v.1.15,2013-02-13 09:25:00,
2013-02-13 02:35:00,14.3,1.8,30.10,North,360,0.0,0.0,57,0.00,,,0.00,Wunderground v.1.15,2013-02-13 09:35:00,
2013-02-13 02:45:00,14.1,1.6,30.09,North,5,0.0,0.0,57,0.00,,,0.00,Wunderground v.1.15,2013-02-13 09:45:00,
2013-02-13 02:55:00,13.8,1.4,30.08,North,360,0.0,0.0,57,0.00,,,0.00,Wunderground v.1.15,2013-02-13 09:55:00,
2013-02-13 03:05:00,13.6,1.5,30.09,North,5,0.0,0.0,58,0.00,,,0.00,Wunderground v.1.15,2013-02-13 10:05:00,
2013-02-13 03:15:00,13.4,1.7,30.10,North,360,0.0,0.0,59,0.00,,,0.00,Wunderground v.1.15,2013-02-13 10:15:00,
2013-02-13 03:25:00,13.3,2.3,30.09,North,360,0.0,0.0,61,0.00,,,0.00,Wunderground v.1.15,2013-02-13 10:25:00,
2013-02-13 03:30:00,13.2,1.9,30.09,North,360,0.0,0.0,60,0.00,,,0.00,Wunderground v.1.15,2013-02-13 10:30:00,
2013-02-13 03:40:00,13.2,1.9,30.09,North,360,0.0,0.0,60,0.00,,,0.00,Wunderground v.1.15,2013-02-13 10:40:00,
2013-02-13 03:50:00,13.2,2.3,30.09,North,5,0.0,0.0,61,0.00,,,0.00,Wunderground v.1.15,2013-02-13 10:50:00,
2013-02-13 03:55:00,13.3,2.3,30.09,North,5,0.0,0.0,61,0.00,,,0.00,Wunderground v.1.15,2013-02-13 10:55:00,
2013-02-13 04:05:00,13.4,2.4,30.11,North,360,0.0,0.0,61,0.00,,,0.00,Wunderground v.1.15,2013-02-13 11:05:00,
2013-02-13 04:15:00,13.4,2.4,30.11,North,5,0.0,0.0,61,0.00,,,0.00,Wunderground v.1.15,2013-02-13 11:15:00,
2013-02-13 04:25:00,13.5,2.5,30.09,North,5,0.0,0.0,61,0.00,,,0.00,Wunderground v.1.15,2013-02-13 11:25:00,
2013-02-13 04:30:00,13.5,2.5,30.09,North,5,0.0,0.0,61,0.00,,,0.00,Wunderground v.1.15,2013-02-13 11:30:00,
2013-02-13 04:35:00,13.6,3.0,30.09,North,5,0.0,0.0,62,0.00,,,0.00,Wunderground v.1.15,2013-02-13 11:35:00,
2013-02-13 04:45:00,13.8,3.2,30.09,North,360,0.0,0.0,62,0.00,,,0.00,Wunderground v.1.15,2013-02-13 11:45:00,
2013-02-13 04:55:00,14.0,3.4,30.09,North,5,0.0,0.0,62,0.00,,,0.00,Wunderground v.1.15,2013-02-13 11:55:00,
2013-02-13 05:05:00,14.1,3.5,30.13,North,360,0.0,0.0,62,0.00,,,0.00,Wunderground v.1.15,2013-02-13 12:05:00,
2013-02-13 05:15:00,14.1,3.5,30.13,North,360,0.0,0.0,62,0.00,,,0.00,Wunderground v.1.15,2013-02-13 12:15:00,
2013-02-13 05:20:00,14.2,3.6,30.13,North,360,0.0,0.0,62,0.00,,,0.00,Wunderground v.1.15,2013-02-13 12:20:00,
2013-02-13 05:30:00,14.3,4.0,30.12,North,5,0.0,0.0,63,0.00,,,0.00,Wunderground v.1.15,2013-02-13 12:30:00,
2013-02-13 05:40:00,14.4,3.7,30.12,North,5,0.0,0.0,62,0.00,,,0.00,Wunderground v.1.15,2013-02-13 12:40:00,
2013-02-13 05:50:00,14.6,4.3,30.11,North,5,0.0,0.0,63,0.00,,,0.00,Wunderground v.1.15,2013-02-13 12:50:00,
2013-02-13 05:55:00,14.6,3.9,30.11,North,360,0.0,0.0,62,0.00,,,0.00,Wunderground v.1.15,2013-02-13 12:55:00,
2013-02-13 06:05:00,14.6,4.3,30.15,North,5,0.0,0.0,63,0.00,,,0.00,Wunderground v.1.15,2013-02-13 13:05:00,
2013-02-13 06:15:00,14.5,4.2,30.14,North,5,0.0,0.0,63,0.00,,,0.00,Wunderground v.1.15,2013-02-13 13:15:00,
2013-02-13 06:25:00,14.5,4.2,30.14,North,360,0.0,0.0,63,0.00,,,0.00,Wunderground v.1.15,2013-02-13 13:25:00,
2013-02-13 06:35:00,14.4,4.1,30.13,North,5,0.0,0.0,63,0.00,,,0.00,Wunderground v.1.15,2013-02-13 13:35:00,
2013-02-13 06:45:00,14.5,4.5,30.13,North,360,0.0,0.0,64,0.00,,,0.00,Wunderground v.1.15,2013-02-13 13:45:00,
2013-02-13 06:55:00,14.6,4.6,30.13,North,360,0.0,0.0,64,0.00,,,0.00,Wunderground v.1.15,2013-02-13 13:55:00,
2013-02-13 07:00:00,14.7,4.7,30.12,North,360,0.0,0.0,64,0.00,,,0.00,Wunderground v.1.15,2013-02-13 14:00:00,
2013-02-13 07:05:00,14.7,4.7,30.15,North,360,0.0,0.0,64,0.00,,,0.00,Wunderground v.1.15,2013-02-13 14:05:00,
2013-02-13 07:15:00,14.7,4.7,30.15,North,5,0.0,0.0,64,0.00,,,0.00,Wunderground v.1.15,2013-02-13 14:15:00,
2013-02-13 07:25:00,14.8,5.2,30.15,North,360,0.0,0.0,65,0.00,,,0.00,Wunderground v.1.15,2013-02-13 14:25:00,
2013-02-13 07:35:00,14.9,5.2,30.15,North,5,0.0,0.0,65,0.00,,,0.00,Wunderground v.1.15,2013-02-13 14:35:00,
2013-02-13 07:45:00,15.3,5.6,30.15,North,5,0.0,0.0,65,0.00,,,0.00,Wunderground v.1.15,2013-02-13 14:45:00,
2013-02-13 07:55:00,16.0,6.6,30.14,North,5,0.0,0.0,66,0.00,,,0.00,Wunderground v.1.15,2013-02-13 14:55:00,
2013-02-13 08:05:00,16.8,7.4,30.16,North,360,0.0,0.0,66,0.00,,,0.00,Wunderground v.1.15,2013-02-13 15:05:00,
2013-02-13 08:15:00,19.9,9.3,30.14,North,5,0.0,0.0,63,0.00,,,0.00,Wunderground v.1.15,2013-02-13 15:15:00,
2013-02-13 08:25:00,22.9,10.3,30.11,North,5,0.0,0.0,58,0.00,,,0.00,Wunderground v.1.15,2013-02-13 15:25:00,
2013-02-13 08:35:00,23.7,10.3,30.11,North,360,0.0,0.0,56,0.00,,,0.00,Wunderground v.1.15,2013-02-13 15:35:00,
2013-02-13 08:40:00,25.1,10.8,30.10,North,5,0.0,0.0,54,0.00,,,0.00,Wunderground v.1.15,2013-02-13 15:40:00,
2013-02-13 08:50:00,27.9,12.1,30.08,North,5,0.0,0.0,51,0.00,,,0.00,Wunderground v.1.15,2013-02-13 15:50:00,
2013-02-13 08:55:00,29.3,12.5,30.07,West,261,0.0,2.0,49,0.00,,,0.00,Wunderground v.1.15,2013-02-13 15:55:00,
2013-02-13 09:05:00,31.9,12.9,30.06,West,261,0.0,0.0,45,0.00,,,0.00,Wunderground v.1.15,2013-02-13 16:05:00,
2013-02-13 09:10:00,32.6,13.1,30.06,West,260,0.0,0.0,44,0.00,,,0.00,Wunderground v.1.15,2013-02-13 16:10:00,
2013-02-13 09:15:00,33.2,13.1,30.06,West,260,0.0,0.0,43,0.00,,,0.00,Wunderground v.1.15,2013-02-13 16:15:00,
2013-02-13 09:25:00,33.6,14.5,30.04,West,261,0.0,0.0,45,0.00,,,0.00,Wunderground v.1.15,2013-02-13 16:25:00,
2013-02-13 09:30:00,33.7,14.1,30.05,West,260,0.0,0.0,44,0.00,,,0.00,Wunderground v.1.15,2013-02-13 16:30:00,
2013-02-13 09:35:00,34.1,13.4,30.05,West,261,0.0,0.0,42,0.00,,,0.00,Wunderground v.1.15,2013-02-13 16:35:00,
2013-02-13 09:45:00,35.2,13.8,30.05,West,261,0.0,0.0,41,0.00,,,0.00,Wunderground v.1.15,2013-02-13 16:45:00,
2013-02-13 09:50:00,36.0,12.8,30.03,West,260,0.0,0.0,38,0.00,,,0.00,Wunderground v.1.15,2013-02-13 16:50:00,
2013-02-13 10:00:00,37.7,14.3,30.00,West,261,0.0,0.0,38,0.00,,,0.00,Wunderground v.1.15,2013-02-13 17:00:00,
2013-02-13 10:05:00,38.4,14.4,30.01,West,261,0.0,1.0,37,0.00,,,0.00,Wunderground v.1.15,2013-02-13 17:05:00,
2013-02-13 10:15:00,40.2,13.3,29.99,SSW,206,1.0,1.0,33,0.00,,,0.00,Wunderground v.1.15,2013-02-13 17:15:00,
2013-02-13 10:25:00,41.4,15.1,29.98,NE,50,1.0,1.0,34,0.00,,,0.00,Wunderground v.1.15,2013-02-13 17:25:00,
2013-02-13 10:30:00,42.4,14.6,29.98,NNE,30,0.0,2.0,32,0.00,,,0.00,Wunderground v.1.15,2013-02-13 17:30:00,
2013-02-13 10:35:00,42.5,13.2,29.97,SSW,196,1.0,2.0,30,0.00,,,0.00,Wunderground v.1.15,2013-02-13 17:35:00,
2013-02-13 10:45:00,42.8,13.5,29.97,ENE,63,1.0,1.0,30,0.00,,,0.00,Wunderground v.1.15,2013-02-13 17:45:00,
2013-02-13 10:55:00,43.3,13.1,29.97,North,360,1.0,1.0,29,0.00,,,0.00,Wunderground v.1.15,2013-02-13 17:55:00,
2013-02-13 11:05:00,44.2,14.7,29.98,NNW,327,1.0,1.0,30,0.00,,,0.00,Wunderground v.1.15,2013-02-13 18:05:00,
2013-02-13 11:10:00,45.1,13.9,29.98,NNE,14,1.0,1.0,28,0.00,,,0.00,Wunderground v.1.15,2013-02-13 18:10:00,
2013-02-13 11:20:00,44.7,14.3,29.99,NNE,27,2.0,2.0,29,0.00,,,0.00,Wunderground v.1.15,2013-02-13 18:20:00,
2013-02-13 11:30:00,43.5,14.1,29.99,East,86,2.0,2.0,30,0.00,,,0.00,Wunderground v.1.15,2013-02-13 18:30:00,
2013-02-13 11:35:00,43.2,13.8,30.01,NNE,18,3.0,3.0,30,0.00,,,0.00,Wunderground v.1.15,2013-02-13 18:35:00,
2013-02-13 11:45:00,42.2,12.9,30.01,East,88,2.0,3.0,30,0.00,,,0.00,Wunderground v.1.15,2013-02-13 18:45:00,
2013-02-13 11:50:00,41.6,12.4,30.01,NE,46,3.0,3.0,30,0.00,,,0.00,Wunderground v.1.15,2013-02-13 18:50:00,
2013-02-13 12:00:00,40.7,13.1,30.02,West,281,2.0,3.0,32,0.00,,,0.00,Wunderground v.1.15,2013-02-13 19:00:00,
2013-02-13 12:10:00,40.9,14.0,30.01,North,360,2.0,2.0,33,0.00,,,0.00,Wunderground v.1.15,2013-02-13 19:10:00,
2013-02-13 12:20:00,40.5,13.6,30.01,NE,35,1.0,1.0,33,0.00,,,0.00,Wunderground v.1.15,2013-02-13 19:20:00,
2013-02-13 12:30:00,40.6,13.7,30.00,NNE,24,1.0,1.0,33,0.00,,,0.00,Wunderground v.1.15,2013-02-13 19:30:00,
2013-02-13 12:35:00,41.1,14.1,30.01,ENE,63,1.0,1.0,33,0.00,,,0.00,Wunderground v.1.15,2013-02-13 19:35:00,
2013-02-13 12:40:00,41.2,14.2,30.00,NE,55,1.0,1.0,33,0.00,,,0.00,Wunderground v.1.15,2013-02-13 19:40:00,
2013-02-13 12:50:00,42.0,14.9,30.00,NNW,344,1.0,6.0,33,0.00,,,0.00,Wunderground v.1.15,2013-02-13 19:50:00,
2013-02-13 12:55:00,42.1,14.3,30.00,NNE,22,1.0,6.0,32,0.00,,,0.00,Wunderground v.1.15,2013-02-13 19:55:00,
2013-02-13 13:05:00,41.9,14.8,30.00,NNW,333,1.0,2.0,33,0.00,,,0.00,Wunderground v.1.15,2013-02-13 20:05:00,
2013-02-13 13:15:00,41.8,14.1,30.01,North,360,2.0,4.0,32,0.00,,,0.00,Wunderground v.1.15,2013-02-13 20:15:00,
2013-02-13 13:25:00,40.8,15.2,30.01,NE,39,3.0,3.0,35,0.00,,,0.00,Wunderground v.1.15,2013-02-13 20:25:00,
2013-02-13 13:35:00,39.6,14.8,30.02,North,355,2.0,3.0,36,0.00,,,0.00,Wunderground v.1.15,2013-02-13 20:35:00,
2013-02-13 13:45:00,38.6,15.1,30.02,NNE,33,2.0,2.0,38,0.00,,,0.00,Wunderground v.1.15,2013-02-13 20:45:00,
2013-02-13 13:55:00,38.5,15.7,30.02,NNE,33,2.0,2.0,39,0.00,,,0.00,Wunderground v.1.15,2013-02-13 20:55:00,
2013-02-13 14:05:00,39.2,15.7,30.04,NW,323,2.0,6.0,38,0.00,,,0.00,Wunderground v.1.15,2013-02-13 21:05:00,
2013-02-13 14:15:00,39.7,15.5,30.02,NNW,347,3.0,5.0,37,0.00,,,0.00,Wunderground v.1.15,2013-02-13 21:15:00,
2013-02-13 14:25:00,39.7,15.5,30.02,WSW,238,3.0,3.0,37,0.00,,,0.00,Wunderground v.1.15,2013-02-13 21:25:00,
2013-02-13 14:35:00,39.3,15.2,30.03,North,360,2.0,4.0,37,0.00,,,0.00,Wunderground v.1.15,2013-02-13 21:35:00,
2013-02-13 14:45:00,39.1,15.6,30.03,NW,315,1.0,2.0,38,0.00,,,0.00,Wunderground v.1.15,2013-02-13 21:45:00,
2013-02-13 14:55:00,39.3,15.8,30.03,NE,51,1.0,1.0,38,0.00,,,0.00,Wunderground v.1.15,2013-02-13 21:55:00,
2013-02-13 15:05:00,39.1,15.6,30.04,North,360,1.0,1.0,38,0.00,,,0.00,Wunderground v.1.15,2013-02-13 22:05:00,
2013-02-13 15:15:00,38.7,15.2,30.04,NE,38,1.0,1.0,38,0.00,,,0.00,Wunderground v.1.15,2013-02-13 22:15:00,
2013-02-13 15:20:00,38.6,15.1,30.04,NNE,12,1.0,1.0,38,0.00,,,0.00,Wunderground v.1.15,2013-02-13 22:20:00,
2013-02-13 15:30:00,38.2,15.4,30.05,NNE,21,1.0,1.0,39,0.00,,,0.00,Wunderground v.1.15,2013-02-13 22:30:00,
2013-02-13 15:40:00,38.1,15.9,30.05,NE,46,0.0,0.0,40,0.00,,,0.00,Wunderground v.1.15,2013-02-13 22:40:00,
2013-02-13 15:50:00,38.1,15.9,30.05,NNE,13,0.0,0.0,40,0.00,,,0.00,Wunderground v.1.15,2013-02-13 22:50:00,
2013-02-13 16:00:00,38.0,15.8,30.05,NE,34,0.0,0.0,40,0.00,,,0.00,Wunderground v.1.15,2013-02-13 23:00:00,
2013-02-13 16:10:00,37.8,15.6,30.04,NNW,348,1.0,4.0,40,0.00,,,0.00,Wunderground v.1.15,2013-02-13 23:10:00,
2013-02-13 16:15:00,37.7,16.1,30.03,NNW,337,1.0,4.0,41,0.00,,,0.00,Wunderground v.1.15,2013-02-13 23:15:00,
2013-02-13 16:25:00,37.3,15.7,30.05,NNW,344,0.0,0.0,41,0.00,,,0.00,Wunderground v.1.15,2013-02-13 23:25:00,
2013-02-13 16:35:00,37.1,15.5,30.05,ENE,59,0.0,0.0,41,0.00,,,0.00,Wunderground v.1.15,2013-02-13 23:35:00,
2013-02-13 16:45:00,36.7,15.7,30.05,ENE,59,0.0,0.0,42,0.00,,,0.00,Wunderground v.1.15,2013-02-13 23:45:00,
2013-02-13 16:55:00,36.6,15.6,30.06,ENE,59,0.0,0.0,42,0.00,,,0.00,Wunderground v.1.15,2013-02-13 23:55:00,
2013-02-13 17:00:00,36.6,16.2,30.05,ENE,59,0.0,0.0,43,0.00,,,0.00,Wunderground v.1.15,2013-02-14 00:00:00,
2013-02-13 17:10:00,36.2,15.8,30.06,ENE,59,0.0,0.0,43,0.00,,,0.00,Wunderground v.1.15,2013-02-14 00:10:00,
2013-02-13 17:20:00,35.9,15.0,30.06,ENE,59,0.0,0.0,42,0.00,,,0.00,Wunderground v.1.15,2013-02-14 00:20:00,
2013-02-13 17:30:00,35.3,15.0,30.06,ENE,59,0.0,0.0,43,0.00,,,0.00,Wunderground v.1.15,2013-02-14 00:30:00,
2013-02-13 17:40:00,34.5,14.3,30.07,ENE,59,0.0,0.0,43,0.00,,,0.00,Wunderground v.1.15,2013-02-14 00:40:00,
2013-02-13 17:50:00,33.8,14.2,30.09,ENE,59,0.0,0.0,44,0.00,,,0.00,Wunderground v.1.15,2013-02-14 00:50:00,
2013-02-13 18:00:00,33.1,14.0,30.09,ENE,59,0.0,0.0,45,0.00,,,0.00,Wunderground v.1.15,2013-02-14 01:00:00,
2013-02-13 18:10:00,32.1,13.1,30.10,ENE,59,0.0,0.0,45,0.00,,,0.00,Wunderground v.1.15,2013-02-14 01:10:00,
2013-02-13 18:20:00,31.2,13.3,30.11,ENE,59,0.0,0.0,47,0.00,,,0.00,Wunderground v.1.15,2013-02-14 01:20:00,
2013-02-13 18:30:00,30.3,12.9,30.12,ENE,59,0.0,0.0,48,0.00,,,0.00,Wunderground v.1.15,2013-02-14 01:30:00,
2013-02-13 18:40:00,29.6,12.3,30.13,ENE,59,0.0,0.0,48,0.00,,,0.00,Wunderground v.1.15,2013-02-14 01:40:00,
2013-02-13 18:50:00,29.1,12.3,30.13,ENE,59,0.0,0.0,49,0.00,,,0.00,Wunderground v.1.15,2013-02-14 01:50:00,
2013-02-13 18:55:00,29.0,12.2,30.13,ENE,59,0.0,0.0,49,0.00,,,0.00,Wunderground v.1.15,2013-02-14 01:55:00,
2013-02-13 19:00:00,28.8,12.5,30.13,ENE,59,0.0,0.0,50,0.00,,,0.00,Wunderground v.1.15,2013-02-14 02:00:00,
2013-02-13 19:10:00,28.5,12.2,30.14,ENE,59,0.0,0.0,50,0.00,,,0.00,Wunderground v.1.15,2013-02-14 02:10:00,
2013-02-13 19:20:00,28.0,12.2,30.14,ENE,59,0.0,0.0,51,0.00,,,0.00,Wunderground v.1.15,2013-02-14 02:20:00,
2013-02-13 19:30:00,27.6,11.4,30.15,ENE,59,0.0,0.0,50,0.00,,,0.00,Wunderground v.1.15,2013-02-14 02:30:00,
2013-02-13 19:40:00,27.2,11.4,30.17,ENE,59,0.0,0.0,51,0.00,,,0.00,Wunderground v.1.15,2013-02-14 02:40:00,
2013-02-13 19:50:00,26.7,11.4,30.17,ENE,59,0.0,0.0,52,0.00,,,0.00,Wunderground v.1.15,2013-02-14 02:50:00,
2013-02-13 20:00:00,26.3,11.5,30.17,ENE,59,0.0,0.0,53,0.00,,,0.00,Wunderground v.1.15,2013-02-14 03:00:00,
2013-02-13 20:05:00,26.1,11.3,30.06,ENE,59,0.0,0.0,53,0.00,,,0.00,Wunderground v.1.15,2013-02-14 03:05:00,
2013-02-13 20:15:00,25.7,10.9,30.06,ENE,59,0.0,0.0,53,0.00,,,0.00,Wunderground v.1.15,2013-02-14 03:15:00,
2013-02-13 20:25:00,25.3,11.0,30.06,ENE,59,0.0,0.0,54,0.00,,,0.00,Wunderground v.1.15,2013-02-14 03:25:00,
2013-02-13 20:35:00,25.0,10.7,30.06,ENE,59,0.0,0.0,54,0.00,,,0.00,Wunderground v.1.15,2013-02-14 03:35:00,
2013-02-13 20:45:00,24.7,11.6,30.07,ENE,59,0.0,0.0,57,0.00,,,0.00,Wunderground v.1.15,2013-02-14 03:45:00,
2013-02-13 21:00:00,24.2,10.7,30.08,ENE,59,0.0,0.0,56,0.00,,,0.00,Wunderground v.1.15,2013-02-14 04:00:00,
2013-02-13 21:05:00,24.0,10.6,30.02,ENE,59,0.0,0.0,56,0.00,,,0.00,Wunderground v.1.15,2013-02-14 04:05:00,
2013-02-13 21:15:00,23.6,10.6,30.02,ENE,59,0.0,0.0,57,0.00,,,0.00,Wunderground v.1.15,2013-02-14 04:15:00,
2013-02-13 21:25:00,23.3,10.7,30.04,ENE,59,0.0,0.0,58,0.00,,,0.00,Wunderground v.1.15,2013-02-14 04:25:00,
2013-02-13 21:35:00,23.0,10.4,30.04,ENE,59,0.0,0.0,58,0.00,,,0.00,Wunderground v.1.15,2013-02-14 04:35:00,
2013-02-13 21:45:00,22.7,10.1,30.04,ENE,59,0.0,0.0,58,0.00,,,0.00,Wunderground v.1.15,2013-02-14 04:45:00,
2013-02-13 21:55:00,22.4,9.8,30.05,ENE,59,0.0,0.0,58,0.00,,,0.00,Wunderground v.1.15,2013-02-14 04:55:00,
2013-02-13 22:00:00,22.3,9.7,30.05,ENE,59,0.0,0.0,58,0.00,,,0.00,Wunderground v.1.15,2013-02-14 05:00:00,
2013-02-13 22:05:00,22.2,9.7,30.00,ENE,59,0.0,0.0,58,0.00,,,0.00,Wunderground v.1.15,2013-02-14 05:05:00,
2013-02-13 22:10:00,22.1,9.9,30.00,ENE,59,0.0,0.0,59,0.00,,,0.00,Wunderground v.1.15,2013-02-14 05:10:00,
2013-02-13 22:20:00,21.9,9.7,30.00,ENE,59,0.0,0.0,59,0.00,,,0.00,Wunderground v.1.15,2013-02-14 05:20:00,
2013-02-13 22:30:00,21.7,9.2,30.00,ENE,59,0.0,0.0,58,0.00,,,0.00,Wunderground v.1.15,2013-02-14 05:30:00,
2013-02-13 22:35:00,21.6,9.5,30.00,ENE,59,0.0,0.0,59,0.00,,,0.00,Wunderground v.1.15,2013-02-14 05:35:00,
2013-02-13 22:45:00,21.5,9.4,29.99,ENE,59,0.0,0.0,59,0.00,,,0.00,Wunderground v.1.15,2013-02-14 05:45:00,
2013-02-13 22:55:00,21.6,9.5,29.99,ENE,59,0.0,0.0,59,0.00,,,0.00,Wunderground v.1.15,2013-02-14 05:55:00,
2013-02-13 23:05:00,21.7,9.6,30.02,ENE,59,0.0,0.0,59,0.00,,,0.00,Wunderground v.1.15,2013-02-14 06:05:00,
2013-02-13 23:10:00,21.8,9.7,30.02,ENE,59,0.0,0.0,59,0.00,,,0.00,Wunderground v.1.15,2013-02-14 06:10:00,
2013-02-13 23:20:00,21.8,9.7,30.02,ENE,59,0.0,0.0,59,0.00,,,0.00,Wunderground v.1.15,2013-02-14 06:20:00,
2013-02-13 23:30:00,22.0,9.8,30.02,ENE,59,0.0,0.0,59,0.00,,,0.00,Wunderground v.1.15,2013-02-14 06:30:00,
2013-02-13 23:40:00,22.2,9.7,30.02,ENE,59,0.0,0.0,58,0.00,,,0.00,Wunderground v.1.15,2013-02-14 06:40:00,
2013-02-13 23:50:00,22.5,10.3,30.02,ENE,59,0.0,0.0,59,0.00,,,0.00,Wunderground v.1.15,2013-02-14 06:50:00,
2013-02-13 23:55:00,22.5,9.9,30.00,ENE,59,0.0,0.0,58,0.00,,,0.00,Wunderground v.1.15,2013-02-14 06:55:00,